Location: Cerda�ola
(41.4919°N, 2.1403°E)
Time: 20:22:19
(UTC+00:00)

STARLINK-1082 - Pass Details

Date: 29 March 2020
Orbit: 549 x 551 km, 53.0° (Epoch: 30 May)

Event Time Altitude Azimuth Distance (km) Brightness Sun altitude
Rises 19:32:20 0° 309° (NW) 2,728 8.6 -15.1°
Reaches altitude 10° 19:34:36 10° 313° (NW) 1,831 7.4 -15.5°
Maximum altitude 19:38:44 60° 34° (NE) 632 3.8 -16.3°
Enters shadow 19:40:21 34° 101° (E) 927 4.2 -16.5°
